GTI9020 KMIA-KATL

Flight info

Callsign GTI9020
Flight time 1h 20m
Altitude 34000
Route FLMGO2 STYMY Q77 MJAMS/N0501F350 Q77 SHRKS/N0505F340 LAIRI LARZZ JJEDI4
Aircraft B77L/H-SDE1E2E3FGHIJ2J3J4J5M1RWXY/LB1D1

Departure

Time 2026-05-07 20:55
Airport Miami International Airport (KMIA)

Arrival

Time 2026-05-07 22:15
Airport Hartsfield Jackson Atlanta International Airport (KATL)
Time Latitude Longitude Altitude Speed Heading
2026-05-07 20:17 25.79238 -80.30635 19 ft 0 kts 313°
2026-05-07 20:37 25.79237 -80.30634 20 ft 2 kts 313°
2026-05-07 20:37 25.79239 -80.30636 19 ft 0 kts 313°
2026-05-07 20:45 25.79232 -80.30628 19 ft 3 kts 313°
2026-05-07 20:45 25.79218 -80.30611 19 ft 3 kts 313°
2026-05-07 20:45 25.79207 -80.30597 20 ft 1 kts 333°
2026-05-07 20:46 25.79193 -80.30591 19 ft 1 kts 336°
2026-05-07 20:46 25.79185 -80.30581 21 ft 2 kts 236°
2026-05-07 20:46 25.79185 -80.30573 19 ft 1 kts 174°
2026-05-07 20:46 25.79166 -80.30568 19 ft 3 kts 171°
2026-05-07 20:47 25.79156 -80.30568 22 ft 0 kts 178°
2026-05-07 20:48 25.79155 -80.30568 22 ft 1 kts 178°
2026-05-07 20:48 25.79104 -80.30566 21 ft 9 kts 178°
2026-05-07 20:48 25.79059 -80.30565 19 ft 0 kts 179°
2026-05-07 20:48 25.79056 -80.30565 19 ft 1 kts 179°
2026-05-07 20:49 25.79051 -80.30565 19 ft 1 kts 179°
2026-05-07 20:49 25.79020 -80.30564 19 ft 8 kts 178°
2026-05-07 20:49 25.78960 -80.30562 19 ft 9 kts 178°
2026-05-07 20:49 25.78901 -80.30560 19 ft 9 kts 178°
2026-05-07 20:50 25.78849 -80.30584 21 ft 9 kts 231°
2026-05-07 20:50 25.78836 -80.30653 19 ft 9 kts 267°
2026-05-07 20:50 25.78833 -80.30726 19 ft 10 kts 269°
2026-05-07 20:50 25.78831 -80.30808 19 ft 12 kts 267°
2026-05-07 20:51 25.78827 -80.30908 19 ft 14 kts 267°
2026-05-07 20:51 25.78820 -80.31073 19 ft 23 kts 267°
2026-05-07 20:51 25.78813 -80.31244 19 ft 21 kts 267°
2026-05-07 20:51 25.78807 -80.31390 19 ft 18 kts 267°
2026-05-07 20:52 25.78800 -80.31460 20 ft 7 kts 243°
2026-05-07 20:52 25.78754 -80.31483 21 ft 8 kts 178°
2026-05-07 20:52 25.78701 -80.31480 19 ft 7 kts 177°
2026-05-07 20:52 25.78649 -80.31477 19 ft 7 kts 177°
2026-05-07 20:53 25.78618 -80.31457 21 ft 5 kts 118°
2026-05-07 20:53 25.78614 -80.31416 21 ft 4 kts 89°
2026-05-07 20:53 25.78614 -80.31415 21 ft 0 kts 89°
2026-05-07 20:54 25.78618 -80.31251 19 ft 58 kts 88°
2026-05-07 20:54 25.78649 -80.30518 19 ft 130 kts 87°
2026-05-07 20:54 25.78695 -80.29298 43 ft 179 kts 87°
2026-05-07 20:55 25.78772 -80.27933 650 ft 182 kts 88°
2026-05-07 20:55 25.78881 -80.26524 1358 ft 184 kts 86°
2026-05-07 20:55 25.79003 -80.25038 1755 ft 206 kts 87°
2026-05-07 20:55 25.79141 -80.23339 1984 ft 238 kts 86°
2026-05-07 20:56 25.79306 -80.21431 2490 ft 254 kts 83°
2026-05-07 20:56 25.79691 -80.19474 3262 ft 263 kts 74°
2026-05-07 20:56 25.80511 -80.17685 4044 ft 269 kts 48°
2026-05-07 20:56 25.82038 -80.16437 4958 ft 272 kts 26°
2026-05-07 20:57 25.83813 -80.15806 5817 ft 273 kts
2026-05-07 20:57 25.85728 -80.15696 6563 ft 279 kts 360°
2026-05-07 20:57 25.87682 -80.15683 7380 ft 282 kts
2026-05-07 20:57 25.89638 -80.15756 8142 ft 282 kts 348°
2026-05-07 20:58 25.91529 -80.16407 8709 ft 289 kts 340°
2026-05-07 20:58 25.93447 -80.17126 9461 ft 292 kts 341°
2026-05-07 20:58 25.95386 -80.17813 10283 ft 293 kts 342°
2026-05-07 20:58 25.97350 -80.18498 11004 ft 300 kts 342°
2026-05-07 20:59 25.99327 -80.19395 11235 ft 319 kts 325°
2026-05-07 20:59 26.01075 -80.21034 11445 ft 341 kts 316°
2026-05-07 20:59 26.02880 -80.22898 11653 ft 367 kts 317°
2026-05-07 20:59 26.04814 -80.24876 12062 ft 385 kts 317°
2026-05-07 21:00 26.06825 -80.26911 12800 ft 394 kts 317°
2026-05-07 21:00 26.08872 -80.28963 13651 ft 399 kts 317°
2026-05-07 21:00 26.10940 -80.31027 14596 ft 400 kts 317°
2026-05-07 21:00 26.13012 -80.33088 15480 ft 400 kts 317°
2026-05-07 21:01 26.15080 -80.35145 15454 ft 395 kts 317°
2026-05-07 21:01 26.17120 -80.37173 15606 ft 393 kts 317°
2026-05-07 21:01 26.19183 -80.39227 16158 ft 402 kts 317°
2026-05-07 21:01 26.21274 -80.41310 16912 ft 406 kts 317°
2026-05-07 21:02 26.23464 -80.43309 17714 ft 407 kts 326°
2026-05-07 21:02 26.25979 -80.44776 18479 ft 411 kts 334°
2026-05-07 21:02 26.28604 -80.46074 19201 ft 414 kts 334°
2026-05-07 21:02 26.31250 -80.47392 19857 ft 419 kts 334°
2026-05-07 21:03 26.33909 -80.48753 20496 ft 423 kts 333°
2026-05-07 21:03 26.36589 -80.50154 21110 ft 427 kts 333°
2026-05-07 21:03 26.39278 -80.51578 21728 ft 430 kts 332°
2026-05-07 21:03 26.41990 -80.53024 22306 ft 434 kts 332°
2026-05-07 21:04 26.44727 -80.54483 22877 ft 438 kts 332°
2026-05-07 21:04 26.47449 -80.55935 23433 ft 441 kts 332°
2026-05-07 21:04 26.50284 -80.57280 23914 ft 446 kts 338°
2026-05-07 21:04 26.53271 -80.58315 24388 ft 452 kts 341°
2026-05-07 21:05 26.56363 -80.59221 24888 ft 456 kts 342°
2026-05-07 21:05 26.59405 -80.60082 25386 ft 458 kts 342°
2026-05-07 21:05 26.62497 -80.60981 25868 ft 460 kts 342°
2026-05-07 21:05 26.65641 -80.61933 26316 ft 463 kts 341°
2026-05-07 21:06 26.68753 -80.62905 26778 ft 466 kts 341°
2026-05-07 21:06 26.71885 -80.63899 27238 ft 469 kts 340°
2026-05-07 21:06 26.75027 -80.64904 27676 ft 471 kts 340°
2026-05-07 21:06 26.78142 -80.65902 28093 ft 474 kts 340°
2026-05-07 21:07 26.81319 -80.66918 28502 ft 477 kts 340°
2026-05-07 21:07 26.84522 -80.67940 28898 ft 480 kts 340°
2026-05-07 21:07 26.87742 -80.68966 29273 ft 482 kts 340°
2026-05-07 21:07 26.90980 -80.69999 29638 ft 485 kts 340°
2026-05-07 21:08 26.94207 -80.71093 29995 ft 486 kts 338°
2026-05-07 21:08 26.97416 -80.72299 30315 ft 487 kts 337°
2026-05-07 21:08 27.00625 -80.73551 30594 ft 489 kts 337°
2026-05-07 21:08 27.03842 -80.74809 31021 ft 489 kts 337°
2026-05-07 21:09 27.07052 -80.76052 31503 ft 487 kts 337°
2026-05-07 21:09 27.10255 -80.77279 31962 ft 486 kts 337°
2026-05-07 21:09 27.13457 -80.78496 32397 ft 485 kts 337°
2026-05-07 21:09 27.16649 -80.79704 32822 ft 484 kts 337°
2026-05-07 21:10 27.19832 -80.80909 33276 ft 482 kts 337°
2026-05-07 21:10 27.23012 -80.82116 33691 ft 481 kts 337°
2026-05-07 21:10 27.26180 -80.83320 34011 ft 482 kts 337°
2026-05-07 21:11 27.32566 -80.85748 33990 ft 482 kts 336°
2026-05-07 21:11 27.41901 -80.89555 33995 ft 474 kts 335°
2026-05-07 21:12 27.48095 -80.92141 34003 ft 475 kts 335°
2026-05-07 21:12 27.54307 -80.94713 34001 ft 476 kts 335°
2026-05-07 21:13 27.60540 -80.97289 34003 ft 477 kts 335°
2026-05-07 21:13 27.66773 -80.99866 33997 ft 477 kts 335°
2026-05-07 21:14 27.73013 -81.02448 33993 ft 478 kts 335°
2026-05-07 21:14 27.79249 -81.05032 33992 ft 477 kts 335°
2026-05-07 21:15 27.85479 -81.07618 33991 ft 477 kts 335°
2026-05-07 21:15 27.91706 -81.10206 33989 ft 476 kts 335°
2026-05-07 21:16 27.97887 -81.12778 33989 ft 476 kts 335°
2026-05-07 21:16 28.04136 -81.15389 33993 ft 475 kts 333°
2026-05-07 21:17 28.10116 -81.18352 33998 ft 471 kts 329°
2026-05-07 21:17 28.16052 -81.21510 33996 ft 471 kts 330°
2026-05-07 21:18 28.22007 -81.24614 33999 ft 471 kts 330°
2026-05-07 21:18 28.27978 -81.27690 33999 ft 471 kts 330°
2026-05-07 21:19 28.33948 -81.30767 33995 ft 472 kts 330°
2026-05-07 21:19 28.39933 -81.33835 33992 ft 472 kts 330°
2026-05-07 21:20 28.45925 -81.36885 33992 ft 472 kts 330°
2026-05-07 21:20 28.51913 -81.39940 33992 ft 472 kts 330°
2026-05-07 21:21 28.57901 -81.43006 33989 ft 472 kts 330°
2026-05-07 21:21 28.63879 -81.46071 33990 ft 471 kts 330°
2026-05-07 21:22 28.69861 -81.49142 33991 ft 472 kts 330°
2026-05-07 21:22 28.75735 -81.52159 33990 ft 472 kts 330°
2026-05-07 21:23 28.81713 -81.55236 33996 ft 471 kts 330°
2026-05-07 21:23 28.87656 -81.58292 33996 ft 472 kts 331°
2026-05-07 21:24 28.93959 -81.60597 34002 ft 481 kts 341°
2026-05-07 21:24 28.99528 -81.61638 34000 ft 488 kts 348°
2026-05-07 21:25 29.06265 -81.62231 34002 ft 489 kts 349°
2026-05-07 21:25 29.13049 -81.62787 33994 ft 489 kts 349°
2026-05-07 21:26 29.19840 -81.63387 33987 ft 489 kts 348°
2026-05-07 21:26 29.26630 -81.64012 33981 ft 489 kts 348°
2026-05-07 21:27 29.33417 -81.64641 33980 ft 489 kts 348°
2026-05-07 21:27 29.40203 -81.65267 33981 ft 489 kts 348°
2026-05-07 21:28 29.46991 -81.65894 33971 ft 490 kts 348°
2026-05-07 21:28 29.53787 -81.66525 33971 ft 490 kts 348°
2026-05-07 21:29 29.60582 -81.67154 33968 ft 490 kts 348°
2026-05-07 21:29 29.67383 -81.67785 33966 ft 490 kts 348°
2026-05-07 21:30 29.74182 -81.68413 33964 ft 490 kts 348°
2026-05-07 21:30 29.80984 -81.69040 33962 ft 490 kts 348°
2026-05-07 21:31 29.87781 -81.69666 33969 ft 490 kts 348°
2026-05-07 21:31 29.94586 -81.70295 33968 ft 490 kts 348°
2026-05-07 21:32 30.01392 -81.70925 33976 ft 491 kts 348°
2026-05-07 21:32 30.08201 -81.71555 33974 ft 491 kts 348°
2026-05-07 21:33 30.15023 -81.72189 33974 ft 492 kts 348°
2026-05-07 21:33 30.21838 -81.72821 33971 ft 492 kts 348°
2026-05-07 21:34 30.28625 -81.73454 33973 ft 492 kts 348°
2026-05-07 21:34 30.35445 -81.74089 33968 ft 492 kts 348°
2026-05-07 21:35 30.42260 -81.74723 33953 ft 491 kts 348°
2026-05-07 21:35 30.49069 -81.75361 33936 ft 491 kts 348°
2026-05-07 21:36 30.55884 -81.75999 33934 ft 491 kts 348°
2026-05-07 21:36 30.62508 -81.77380 33930 ft 478 kts 336°
2026-05-07 21:37 30.68649 -81.80142 33935 ft 469 kts 327°
2026-05-07 21:37 30.74470 -81.83555 33931 ft 469 kts 326°
2026-05-07 21:38 30.80302 -81.86991 33937 ft 470 kts 327°
2026-05-07 21:38 30.86160 -81.90412 33944 ft 471 kts 327°
2026-05-07 21:39 30.92030 -81.93825 33949 ft 472 kts 327°
2026-05-07 21:39 30.97915 -81.97244 33947 ft 473 kts 327°
2026-05-07 21:40 31.03806 -82.00674 33942 ft 473 kts 326°
2026-05-07 21:40 31.09691 -82.04106 33957 ft 473 kts 326°
2026-05-07 21:41 31.15587 -82.07552 33954 ft 475 kts 326°
2026-05-07 21:41 31.21488 -82.11008 33954 ft 475 kts 326°
2026-05-07 21:42 31.27409 -82.14475 33956 ft 476 kts 326°
2026-05-07 21:42 31.33327 -82.17945 33956 ft 476 kts 326°
2026-05-07 21:43 31.39242 -82.21419 33954 ft 476 kts 326°
2026-05-07 21:43 31.45163 -82.24902 33951 ft 476 kts 326°
2026-05-07 21:44 31.51040 -82.28366 33956 ft 476 kts 326°
2026-05-07 21:44 31.56962 -82.31859 33949 ft 476 kts 326°
2026-05-07 21:45 31.62883 -82.35358 33953 ft 477 kts 326°
2026-05-07 21:45 31.68810 -82.38865 33956 ft 477 kts 326°
2026-05-07 21:46 31.74742 -82.42378 33954 ft 477 kts 326°
2026-05-07 21:46 31.80665 -82.45895 33936 ft 477 kts 326°
2026-05-07 21:47 31.86591 -82.49417 33955 ft 477 kts 326°
2026-05-07 21:47 31.92522 -82.52947 33949 ft 477 kts 326°
2026-05-07 21:48 31.98098 -82.57007 33941 ft 467 kts 316°
2026-05-07 21:48 32.03006 -82.61927 33956 ft 462 kts 311°
2026-05-07 21:49 32.07837 -82.66909 33951 ft 462 kts 311°
2026-05-07 21:49 32.12687 -82.71875 33938 ft 461 kts 311°
2026-05-07 21:50 32.17533 -82.76822 33950 ft 460 kts 311°
2026-05-07 21:50 32.22356 -82.81750 33946 ft 458 kts 311°
2026-05-07 21:51 32.27163 -82.86673 33934 ft 457 kts 311°
2026-05-07 21:51 32.31961 -82.91594 33951 ft 456 kts 311°
2026-05-07 21:52 32.34353 -82.94050 33846 ft 456 kts 311°
2026-05-07 21:52 32.36782 -82.96553 32901 ft 467 kts 311°
2026-05-07 21:52 32.39228 -82.99065 32019 ft 465 kts 311°
2026-05-07 21:52 32.41658 -83.01560 31195 ft 461 kts 311°
2026-05-07 21:53 32.44032 -83.04001 30392 ft 455 kts 311°
2026-05-07 21:53 32.46450 -83.06496 29408 ft 454 kts 311°
2026-05-07 21:53 32.48818 -83.08941 28609 ft 449 kts 311°
2026-05-07 21:53 32.51123 -83.11323 27860 ft 444 kts 311°
2026-05-07 21:54 32.53435 -83.13714 27116 ft 439 kts 311°
2026-05-07 21:54 32.55715 -83.16078 26386 ft 433 kts 311°
2026-05-07 21:54 32.57978 -83.18419 25669 ft 429 kts 311°
2026-05-07 21:54 32.60213 -83.20734 24958 ft 425 kts 311°
2026-05-07 21:55 32.62433 -83.23034 24259 ft 421 kts 311°
2026-05-07 21:55 32.64625 -83.25305 23568 ft 417 kts 311°
2026-05-07 21:55 32.66800 -83.27562 22881 ft 413 kts 311°
2026-05-07 21:55 32.68954 -83.29800 22219 ft 409 kts 311°
2026-05-07 21:56 32.71084 -83.32016 21566 ft 405 kts 311°
2026-05-07 21:56 32.73195 -83.34213 20915 ft 401 kts 311°
2026-05-07 21:56 32.75282 -83.36387 20271 ft 396 kts 311°
2026-05-07 21:56 32.77302 -83.38484 19649 ft 381 kts 310°
2026-05-07 21:57 32.79285 -83.40551 19042 ft 378 kts 310°
2026-05-07 21:57 32.81257 -83.42614 18444 ft 376 kts 310°
2026-05-07 21:57 32.83214 -83.44663 17847 ft 373 kts 310°
2026-05-07 21:57 32.85157 -83.46695 17248 ft 371 kts 310°
2026-05-07 21:58 32.87087 -83.48714 16663 ft 368 kts 310°
2026-05-07 21:58 32.89004 -83.50721 16183 ft 364 kts 311°
2026-05-07 21:58 32.90867 -83.52668 16047 ft 349 kts 310°
2026-05-07 21:58 32.92607 -83.54472 15871 ft 314 kts 310°
2026-05-07 21:59 32.94204 -83.56136 15781 ft 300 kts 309°
2026-05-07 21:59 32.95761 -83.57777 15412 ft 300 kts 309°
2026-05-07 21:59 32.97330 -83.59431 15015 ft 305 kts 309°
2026-05-07 21:59 32.98940 -83.61128 14591 ft 312 kts 310°
2026-05-07 22:00 33.00569 -83.62840 14153 ft 314 kts 310°
2026-05-07 22:00 33.02208 -83.64557 13709 ft 312 kts 310°
2026-05-07 22:00 33.03830 -83.66256 13269 ft 310 kts 311°
2026-05-07 22:00 33.05441 -83.67945 12841 ft 307 kts 311°
2026-05-07 22:01 33.07039 -83.69622 12423 ft 305 kts 311°
2026-05-07 22:01 33.08624 -83.71287 12015 ft 302 kts 311°
2026-05-07 22:01 33.10170 -83.72908 11882 ft 290 kts 311°
2026-05-07 22:01 33.11657 -83.74469 11738 ft 279 kts 311°
2026-05-07 22:02 33.13084 -83.75964 11618 ft 267 kts 311°
2026-05-07 22:02 33.14452 -83.77404 11390 ft 260 kts 311°
2026-05-07 22:02 33.15793 -83.78825 11080 ft 256 kts 311°
2026-05-07 22:02 33.17124 -83.80238 10746 ft 256 kts 311°
2026-05-07 22:03 33.18458 -83.81653 10404 ft 257 kts 311°
2026-05-07 22:03 33.19771 -83.83091 10008 ft 255 kts 309°
2026-05-07 22:03 33.21016 -83.84565 9553 ft 256 kts 309°
2026-05-07 22:03 33.22286 -83.86092 9100 ft 256 kts 309°
2026-05-07 22:04 33.23512 -83.87572 8835 ft 253 kts 310°
2026-05-07 22:04 33.24753 -83.89063 8555 ft 253 kts 310°
2026-05-07 22:04 33.25998 -83.90549 8302 ft 253 kts 310°
2026-05-07 22:04 33.27242 -83.92041 8041 ft 254 kts 310°
2026-05-07 22:05 33.28485 -83.93521 7896 ft 251 kts 310°
2026-05-07 22:05 33.29714 -83.94981 7737 ft 248 kts 310°
2026-05-07 22:05 33.30940 -83.96449 7600 ft 251 kts 310°
2026-05-07 22:05 33.32230 -83.97866 7419 ft 255 kts 319°
2026-05-07 22:06 33.33740 -83.99055 7077 ft 265 kts 323°
2026-05-07 22:06 33.35317 -84.00189 6691 ft 259 kts 324°
2026-05-07 22:06 33.36849 -84.01271 6319 ft 255 kts 324°
2026-05-07 22:06 33.38369 -84.02354 5944 ft 253 kts 324°
2026-05-07 22:07 33.39863 -84.03422 5722 ft 248 kts 324°
2026-05-07 22:07 33.41341 -84.04475 5620 ft 247 kts 324°
2026-05-07 22:07 33.42816 -84.05527 5494 ft 248 kts 324°
2026-05-07 22:07 33.44306 -84.06599 5322 ft 250 kts 324°
2026-05-07 22:08 33.45797 -84.07677 5159 ft 251 kts 324°
2026-05-07 22:08 33.47266 -84.08745 5072 ft 241 kts 324°
2026-05-07 22:08 33.48653 -84.09744 4907 ft 226 kts 324°
2026-05-07 22:08 33.49979 -84.10695 4592 ft 218 kts 324°
2026-05-07 22:09 33.51272 -84.11623 4103 ft 215 kts 324°
2026-05-07 22:09 33.52541 -84.12530 3928 ft 211 kts 324°
2026-05-07 22:09 33.53804 -84.13425 3740 ft 212 kts 324°
2026-05-07 22:09 33.55081 -84.14325 3487 ft 214 kts 324°
2026-05-07 22:10 33.56347 -84.15234 3206 ft 211 kts 324°
2026-05-07 22:10 33.57583 -84.16136 3088 ft 204 kts 324°
2026-05-07 22:10 33.58802 -84.17021 3048 ft 207 kts 324°
2026-05-07 22:10 33.59627 -84.17609 3008 ft 209 kts 324°
2026-05-07 22:11 33.60869 -84.18534 2995 ft 204 kts 316°
2026-05-07 22:11 33.61661 -84.19835 3037 ft 193 kts 294°
2026-05-07 22:11 33.62214 -84.21289 3008 ft 190 kts 293°
2026-05-07 22:11 33.62768 -84.22721 3012 ft 188 kts 290°
2026-05-07 22:12 33.63022 -84.24244 3006 ft 187 kts 277°
2026-05-07 22:12 33.63147 -84.25808 3012 ft 190 kts 273°
2026-05-07 22:12 33.63182 -84.27398 3021 ft 192 kts 270°
2026-05-07 22:12 33.63185 -84.29012 3012 ft 195 kts 270°
2026-05-07 22:13 33.63184 -84.30614 2836 ft 190 kts 271°
2026-05-07 22:13 33.63182 -84.32157 2584 ft 179 kts 272°
2026-05-07 22:13 33.63183 -84.33627 2345 ft 177 kts 271°
2026-05-07 22:13 33.63182 -84.35074 2113 ft 169 kts 272°
2026-05-07 22:14 33.63183 -84.36449 1911 ft 160 kts 273°
2026-05-07 22:14 33.63181 -84.37720 1706 ft 146 kts 272°
2026-05-07 22:14 33.63170 -84.38900 1479 ft 137 kts 272°
2026-05-07 22:14 33.63170 -84.40045 1323 ft 139 kts 276°
2026-05-07 22:15 33.63181 -84.41252 1203 ft 150 kts 272°
2026-05-07 22:15 33.63181 -84.42480 1044 ft 136 kts 272°
2026-05-07 22:15 33.63183 -84.43475 1041 ft 92 kts 270°
2026-05-07 22:15 33.63183 -84.43944 1038 ft 33 kts 268°
2026-05-07 22:16 33.63162 -84.44136 1038 ft 16 kts 232°
2026-05-07 22:16 33.63080 -84.44122 1039 ft 13 kts 111°
2026-05-07 22:16 33.63074 -84.44012 1039 ft 13 kts 90°
2026-05-07 22:16 33.63074 -84.43899 1039 ft 14 kts 90°
2026-05-07 22:17 33.63074 -84.43786 1040 ft 14 kts 90°
2026-05-07 22:17 33.63074 -84.43670 1040 ft 14 kts 90°
2026-05-07 22:17 33.63074 -84.43556 1040 ft 14 kts 90°
2026-05-07 22:17 33.63074 -84.43443 1041 ft 14 kts 89°
2026-05-07 22:18 33.63075 -84.43328 1041 ft 14 kts 90°
2026-05-07 22:18 33.63075 -84.43099 1040 ft 14 kts 90°
2026-05-07 22:18 33.63074 -84.42987 1041 ft 12 kts 96°
2026-05-07 22:19 33.63014 -84.42927 1040 ft 12 kts 166°
2026-05-07 22:19 33.62947 -84.42863 1040 ft 13 kts 147°
2026-05-07 22:19 33.62860 -84.42849 1040 ft 13 kts 180°
2026-05-07 22:19 33.62771 -84.42849 1040 ft 13 kts 180°
2026-05-07 22:20 33.62694 -84.42849 1040 ft 8 kts 187°
2026-05-07 22:20 33.62675 -84.42907 1040 ft 9 kts 271°
2026-05-07 22:20 33.62675 -84.42949 1040 ft 1 kts 270°
2026-05-07 22:20 33.62675 -84.42955 1040 ft 0 kts 270°